STARLINK-32600 (62178 NORAD) Tracking and Keplerian Element Data

This shows tracking and keplerian element data for the satellite.

Feedback or suggestion? Click here.




ElementValue
Catalog62178
NameSTARLINK-32600
Epoch Orbit1017
Epoch Day35.14545635
Epoch Year2025
RAAN89.0522
Inclination70.0002
Eccentricity0.0002731
Argument of Perigee270.7607
Mean Anonmoly89.326
Mean Motion15.38355461
Decay Rate2.486E-05
L11 62178U 24225R 25035.14545635 .00002486 00000+0 69246-4 0 9997
L22 62178 70.0002 89.0522 0002731 270.7607 89.3260 15.38355461 10171



Live tracking and technical data element details for STARLINK-32600 (NORAD 62178). STARLINK-32600 can be tracked NOW for your location showing map with azimuth and elevation plus other details from your city location.







IsCatalogInMostPopularTable: catalog: 62178, numindb: 9
Update: records affected: 1



GetName: 62178 STARLINK-32600

Hit Count: updated at: Sun, 18 May 2025 22:50:14 GMT